Zurück zum Katalog

ONEWEB-0313

AktivKommunikationPO
NORAD 49099·PAYLOAD·🇬🇧 United Kingdom

Gestartet Aug 21, 2021 von Baikonur Cosmodrome

Loading…

Nächste Überflüge (nächste 24 Stunden)

TLE

AktuellSource: CelesTrak SupGP

Epoche: Sep 14, 2026, 17:51 UTC

1 49099C 21075AA  26257.74391620  .00001800  00000+0  46429-2 0  2572
2 49099  87.9198 348.0918 0001904 106.5716   4.1653 13.17647464    11

Verfolge ONEWEB-0313 in Echtzeit mit AllMySat

Download on the App Store